DW5536 Weather Reports


time (UTC)temp
C
wind
direction
speed
KPH
gust
KPH
rain 1hr
cm
rain 24hr
cm
rain mn
cm
humidity
%
barometer
mb
20260503223007 18 290 6.4 25.7 0.00 0.00 0.00 38 1015.2
20260503222506 18 197 12.9 29.0 0.00 0.00 0.00 39 1015.3
20260503222007 18 211 9.7 41.8 0.00 0.00 0.00 40 1015.4
20260503221506 18 200 19.3 41.8 0.00 0.00 0.00 39 1015.4
20260503221006 18 232 9.7 25.7 0.00 0.00 0.00 37 1015.3
20260503220506 18 216 3.2 25.7 0.00 0.00 0.00 37 1015.5
20260503220006 18 226 6.4 19.3 0.00 0.00 0.00 36 1015.5
20260503215506 18 308 0.0 19.3 0.00 0.00 0.00 39 1015.5
20260503215006 18 280 16.1 19.3 0.00 0.00 0.00 37 1015.8
20260503214006 18 199 3.2 32.2 0.00 0.00 0.00 37 1015.7
20260503213506 18 261 9.7 32.2 0.00 0.00 0.00 37 1015.5
20260503213006 18 195 12.9 25.7 0.00 0.00 0.00 35 1015.4
20260503210506 18 151 9.7 29.0 0.00 0.00 0.00 38 1015.9
20260503210006 17 190 19.3 25.7 0.00 0.00 0.00 37 1016.0
20260503205506 17 214 12.9 25.7 0.00 0.00 0.00 41 1016.1
20260503205006 17 262 3.2 32.2 0.00 0.00 0.00 38 1016.0
20260503204006 18 156 12.9 32.2 0.00 0.00 0.00 36 1016.3
20260503203506 18 196 3.2 32.2 0.00 0.00 0.00 37 1016.3
20260503203006 18 181 12.9 32.2 0.00 0.00 0.00 39 1016.3
20260503202506 18 204 29.0 32.2 0.00 0.00 0.00 39 1016.5
20260503202005 18 314 9.7 29.0 0.00 0.00 0.00 39 1016.8
20260503201506 18 357 6.4 22.5 0.00 0.00 0.00 37 1016.9
20260503200505 18 190 3.2 19.3 0.00 0.00 0.00 39 1017.1
20260503200005 17 210 16.1 22.5 0.00 0.00 0.00 39 1017.3
20260503195505 17 207 12.9 35.4 0.00 0.00 0.00 38 1017.3
20260503194505 17 221 16.1 29.0 0.00 0.00 0.00 38 1017.6
20260503194005 17 294 6.4 25.7 0.00 0.00 0.00 38 1017.7
20260503193505 17 196 9.7 32.2 0.00 0.00 0.00 41 1017.8
20260503192005 18 186 6.4 29.0 0.00 0.00 0.00 41 1018.0
20260503191505 18 204 16.1 22.5 0.00 0.00 0.00 39 1018.0
20260503190505 18 263 0.0 22.5 0.00 0.00 0.00 40 1018.2
20260503190005 18 274 3.2 19.3 0.00 0.00 0.00 39 1018.2
20260503185505 17 161 6.4 19.3 0.00 0.00 0.00 39 1018.2
20260503184505 17 130 9.7 25.7 0.00 0.00 0.00 41 1018.5
20260503184005 17 186 9.7 22.5 0.00 0.00 0.00 43 1018.6
20260503183505 17 204 22.5 22.5 0.00 0.00 0.00 38 1018.5
20260503182505 17 273 3.2 29.0 0.00 0.00 0.00 42 1018.7
20260503181505 17 175 3.2 25.7 0.00 0.00 0.00 42 1018.7
20260503181004 17 199 25.7 29.0 0.00 0.00 0.00 40 1018.9
20260503180505 17 204 12.9 29.0 0.00 0.00 0.00 41 1018.9
20260503175504 17 204 6.4 22.5 0.00 0.00 0.00 40 1019.0
20260503174504 17 249 6.4 19.3 0.00 0.00 0.00 40 1019.2
20260503174004 17 85 3.2 25.7 0.00 0.00 0.00 39 1019.4
20260503173504 17 287 3.2 25.7 0.00 0.00 0.00 39 1019.4
20260503173004 16 204 6.4 29.0 0.00 0.00 0.00 38 1019.3
20260503172504 16 215 6.4 29.0 0.00 0.00 0.00 43 1019.6
20260503171004 16 46 6.4 22.5 0.00 0.00 0.00 39 1019.9
20260503170504 16 258 0.0 29.0 0.00 0.00 0.00 44 1020.0
20260503151003 13 173 3.2 19.3 0.00 0.00 0.00 45 1021.2
20260503150503 13 250 6.4 19.3 0.00 0.00 0.00 42 1021.3
20260503131002 10 272 0.0 6.4 0.00 0.00 0.00 59 1021.3
20260503110501 -2 227 0.0 0.0 0.00 0.00 0.00 92 1020.4
20260503090500 -1 227 0.0 0.0 0.00 0.00 0.00 91 1019.8
20260503080500 -1 228 0.0 0.0 0.00 0.00 0.00 90 1019.5
20260503072459 0 228 0.0 0.0 0.00 0.00 0.00 90 1019.6
20260503071959 0 227 0.0 0.0 0.00 0.00 0.00 90 1019.5
20260503071500 0 227 0.0 0.0 0.00 0.00 0.00 90 1019.5
20260503070959 0 227 0.0 0.0 0.00 0.00 0.00 90 1019.6
20260503054959 0 228 0.0 0.0 0.00 0.00 0.00 86 1019.7
20260503054459 0 227 0.0 0.0 0.00 0.00 0.00 86 1019.7
20260503053459 1 227 0.0 0.0 0.00 0.00 0.00 86 1019.7
20260503052459 1 228 0.0 0.0 0.00 0.00 0.00 85 1019.8
20260503051458 1 228 0.0 0.0 0.00 0.00 0.00 84 1019.8
20260503050959 1 228 0.0 0.0 0.00 0.00 0.00 84 1019.9
20260503050458 1 228 0.0 0.0 0.00 0.00 0.00 83 1019.9
20260503045958 2 227 0.0 0.0 0.00 0.00 0.00 83 1019.9
20260503044958 2 227 0.0 0.0 0.00 0.00 0.00 82 1020.0
20260503044458 2 228 0.0 0.0 0.00 0.00 0.00 82 1019.9
20260503043458 3 228 0.0 0.0 0.00 0.00 0.00 81 1019.9
20260503042958 3 228 0.0 0.0 0.00 0.00 0.00 80 1019.9
20260503042458 3 228 0.0 0.0 0.00 0.00 0.00 80 1019.9
20260503041958 3 228 0.0 0.0 0.00 0.00 0.00 80 1019.9
20260503041458 3 228 0.0 0.0 0.00 0.00 0.00 79 1019.9
20260503040958 3 228 0.0 0.0 0.00 0.00 0.00 79 1019.8
20260503040458 3 227 0.0 0.0 0.00 0.00 0.00 79 1019.7
20260503040028 3 228 0.0 0.0 0.00 0.00 0.00 79 1019.7
20260503035458 3 228 0.0 0.0 0.00 0.00 0.00 78 1019.8
20260503034958 4 228 0.0 0.0 0.00 0.00 0.00 78 1019.8
20260503034457 4 228 0.0 0.0 0.00 0.00 0.00 77 1019.7
20260503033958 4 228 0.0 0.0 0.00 0.00 0.00 77 1019.7
20260503033458 4 228 0.0 0.0 0.00 0.00 0.00 78 1019.8
20260503032958 5 228 0.0 0.0 0.00 0.00 0.00 78 1019.7
20260503032457 5 228 0.0 0.0 0.00 0.00 0.00 78 1019.7
20260503031958 4 228 0.0 0.0 0.00 0.00 0.00 78 1019.6
20260503031458 4 228 0.0 0.0 0.00 0.00 0.00 79 1019.5
20260503030958 4 228 0.0 0.0 0.00 0.00 0.00 80 1019.6
20260503030457 4 228 0.0 0.0 0.00 0.00 0.00 80 1019.6
20260503030027 4 228 0.0 0.0 0.00 0.00 0.00 81 1019.6
20260503025457 3 228 0.0 0.0 0.00 0.00 0.00 81 1019.4
20260503024957 3 226 0.0 0.0 0.00 0.00 0.00 81 1019.3
20260503024457 3 228 0.0 0.0 0.00 0.00 0.00 81 1019.3
20260503023457 3 228 0.0 0.0 0.00 0.00 0.00 81 1019.1
20260503022957 4 228 0.0 0.0 0.00 0.00 0.00 81 1019.1
20260503021957 4 228 0.0 0.0 0.00 0.00 0.00 79 1018.9
20260503021457 4 228 0.0 0.0 0.00 0.00 0.00 79 1018.8
20260503020957 5 228 0.0 0.0 0.00 0.00 0.00 78 1018.7
20260503015457 5 228 0.0 3.2 0.00 0.00 0.00 76 1018.5
20260503014957 6 228 0.0 3.2 0.00 0.00 0.00 76 1018.4
20260503014457 6 228 3.2 3.2 0.00 0.00 0.00 75 1018.3
20260503013957 6 228 0.0 0.0 0.00 0.00 0.00 73 1018.4
20260503013457 6 228 0.0 0.0 0.00 0.00 0.00 73 1018.3
20260503012957 7 228 0.0 0.0 0.00 0.00 0.00 72 1018.3
20260503012457 7 228 0.0 0.0 0.00 0.00 0.00 71 1018.3
20260503011956 7 228 0.0 3.2 0.00 0.00 0.00 70 1018.3
20260503011026 8 226 0.0 0.0 0.00 0.00 0.00 68 1018.2
20260503010457 8 226 0.0 0.0 0.00 0.00 0.00 68 1018.1
20260503005957 8 227 0.0 0.0 0.00 0.00 0.00 68 1018.0
20260503005457 8 227 0.0 0.0 0.00 0.00 0.00 66 1017.8
20260503004456 8 227 0.0 0.0 0.00 0.00 0.00 66 1017.7
20260503003956 8 227 0.0 0.0 0.00 0.00 0.00 65 1017.6
20260503003456 9 227 0.0 0.0 0.00 0.00 0.00 64 1017.7
20260503002526 10 227 0.0 3.2 0.00 0.00 0.00 62 1017.6
20260503001956 10 227 0.0 3.2 0.00 0.00 0.00 60 1017.5
20260503001456 10 227 0.0 6.4 0.00 0.00 0.00 59 1017.4
20260503000956 10 227 0.0 6.4 0.00 0.00 0.00 57 1017.4
20260503000456 11 17 3.2 9.7 0.00 0.00 0.00 57 1017.4
20260503000026 11 218 0.0 9.7 0.00 0.00 0.00 56 1017.2
20260502234956 11 232 3.2 9.7 0.00 0.00 0.00 56 1017.0
20260502234456 11 235 0.0 9.7 0.00 0.00 0.00 55 1016.9
20260502233956 12 211 3.2 9.7 0.00 0.00 0.00 53 1016.9
20260502232956 12 89 3.2 9.7 0.00 0.00 0.00 55 1017.0
20260502232526 12 31 0.0 19.3 0.00 0.00 0.00 52 1017.0
20260502231956 12 199 6.4 19.3 0.00 0.00 0.00 51 1017.0
20260502231526 13 226 6.4 9.7 0.00 0.00 0.00 50 1017.1
20260502230956 13 29 3.2 16.1 0.00 0.00 0.00 50 1017.2
20260502230456 13 259 0.0 16.1 0.00 0.00 0.00 49 1017.1
20260502225955 13 7 0.0 9.7 0.00 0.00 0.00 50 1017.1
20260502225456 13 271 0.0 9.7 0.00 0.00 0.00 51 1017.0
20260502224956 13 212 6.4 9.7 0.00 0.00 0.00 51 1016.9
20260502224455 13 57 0.0 16.1 0.00 0.00 0.00 52 1016.9
20260502223956 12 23 0.0 16.1 0.00 0.00 0.00 55 1016.9